Lapse_Rate
5.5 5.4 5.2 5.0 4.9 4.8 4.8 4.6 4.6 4.6 4.7 4.6 4.4 4.4 4.3 4.2 4.2 4.2 4.1 4.0 3.9 3.7 3.6 3.7 3.7 3.8 4.4 4.8 5.0 5.7 6.0 6.0 6.1 6.3 6.6 6.6 6.6 6.3 6.8 6.8 7.0 6.8 6.7
5.6 5.3 5.1 5.0 4.9 4.8 4.7 4.6 4.6 4.7 4.7 4.7 4.5 4.2 4.0 3.9 4.0 4.0 4.0 3.9 3.8 3.8 3.8 3.8 4.1 4.6 5.0 5.8 6.3 6.3 6.2 6.2 6.3 6.6 6.7 6.7 7.1 6.7 6.8 6.5 6.9 7.0 6.6
5.8 5.4 5.2 5.0 4.9 4.8 4.7 4.7 4.7 4.7 4.9 4.6 4.3 4.0 4.0 4.0 4.0 4.0 4.0 3.8 3.7 3.6 3.8 4.4 4.9 5.4 5.8 6.4 6.6 6.6 6.5 6.6 6.7 6.5 6.4 6.4 6.5 7.2 7.0 6.1 6.3 6.6 6.6
5.9 5.7 5.3 5.1 4.9 4.8 4.8 4.7 4.7 4.8 4.8 4.5 4.4 4.0 3.8 3.8 4.0 4.0 3.8 3.8 3.7 3.7 4.3 4.9 5.7 6.2 6.5 6.8 6.7 6.7 6.8 6.7 7.0 6.8 6.4 6.1 6.2 6.6 7.3 6.0 6.0 6.3 6.3
6.0 5.8 5.3 5.0 5.0 4.8 4.7 4.7 4.7 4.8 4.6 4.5 4.3 3.9 3.8 3.9 4.0 3.8 3.9 3.7 3.8 4.3 5.1 5.9 6.3 6.6 6.9 6.9 6.7 6.6 6.6 6.6 6.8 6.9 6.9 6.5 6.1 6.0 6.2 6.7 6.1 6.2 6.7
6.0 5.7 5.2 5.1 4.9 4.8 4.7 4.7 4.7 4.7 4.7 4.4 4.1 3.9 3.7 3.9 3.9 3.9 3.9 3.8 4.4 5.0 5.9 6.5 6.7 6.9 7.0 7.1 6.8 6.6 6.5 6.4 6.4 6.7 6.9 7.1 6.8 6.2 5.9 6.1 6.0 6.0 6.2
6.0 5.5 5.2 5.0 4.8 4.7 4.8 4.7 4.8 4.7 4.5 4.2 4.0 3.7 3.7 3.7 3.9 3.9 3.8 4.1 4.9 5.9 6.6 6.9 7.2 7.2 7.2 7.2 7.0 6.7 6.4 6.2 6.2 6.3 6.6 6.9 6.9 6.6 6.1 5.9 5.9 5.8 6.1
5.7 5.4 5.2 4.9 4.8 4.8 4.7 4.8 4.7 4.5 4.2 3.9 3.7 3.7 3.7 3.7 3.9 3.8 4.0 4.7 5.8 6.6 7.0 7.3 7.6 7.5 7.2 7.2 7.0 6.7 6.3 6.2 6.2 6.1 6.2 6.7 6.9 6.7 6.3 5.9 5.8 5.9 5.9
5.6 5.3 5.1 4.9 4.8 4.7 4.8 4.7 4.5 4.3 3.9 3.6 3.6 3.8 3.9 3.9 3.8 3.9 4.4 5.4 6.5 7.2 7.6 7.6 7.7 7.6 7.3 7.1 7.0 6.7 6.3 6.1 6.0 6.0 6.0 6.5 7.0 6.7 6.5 5.9 5.7 5.8 5.7
5.4 5.1 5.0 4.9 4.8 4.9 4.8 4.5 4.2 3.9 3.6 3.7 3.8 3.9 3.9 3.7 3.9 4.2 5.0 6.2 7.3 7.4 7.5 7.4 7.4 7.3 7.2 7.0 7.0 6.7 6.4 6.2 6.0 5.9 5.9 6.3 6.8 6.8 6.6 6.1 5.8 5.6 5.8
5.2 5.0 5.0 5.0 5.0 4.9 4.5 4.1 3.8 3.6 3.7 3.9 4.0 3.9 3.8 3.9 4.1 4.5 5.6 7.0 7.4 7.2 7.1 6.8 6.8 6.8 6.7 6.6 6.6 6.7 6.5 6.3 6.1 5.9 5.8 6.0 6.5 6.7 6.6 6.4 5.9 5.8 5.7
5.0 5.0 5.0 5.0 4.8 4.4 4.2 3.9 3.7 3.7 3.9 4.1 4.0 3.8 3.9 4.0 4.3 5.1 6.2 7.1 7.0 6.7 6.4 6.1 6.0 6.1 6.1 6.0 6.0 6.2 6.3 6.2 6.1 6.0 5.8 5.8 6.0 6.5 6.5 6.5 6.2 5.9 5.8
5.0 5.0 5.0 4.7 4.4 4.2 4.0 3.9 3.7 3.8 4.0 4.1 4.0 4.0 4.0 4.1 4.5 5.6 6.7 6.7 6.3 6.1 5.7 5.4 5.5 5.6 5.6 5.5 5.5 5.6 5.8 6.0 5.9 6.0 5.8 5.7 5.9 6.1 6.4 6.5 6.4 6.0 6.0
4.9 5.0 4.8 4.5 4.3 4.1 3.9 3.8 3.8 4.0 4.2 4.1 4.1 4.1 4.2 4.3 5.1 5.9 6.4 6.1 5.8 5.5 5.2 5.2 5.1 5.0 5.0 5.0 5.2 5.2 5.2 5.5 5.6 5.7 5.8 5.7 5.9 6.0 6.2 6.4 6.5 6.2 6.0
5.0 4.9 4.7 4.5 4.1 4.0 3.9 3.8 4.0 4.2 4.2 4.2 4.1 4.2 4.2 4.5 4.9 5.8 5.9 5.7 5.5 5.2 5.1 5.1 5.2 5.2 5.1 5.0 4.9 5.0 4.9 5.1 5.3 5.4 5.6 5.7 5.8 6.0 6.1 6.2 6.3 6.3 6.1
5.0 4.8 4.5 4.3 4.1 4.1 4.1 4.2 4.3 4.2 4.2 4.2 4.1 4.1 4.0 4.4 5.0 5.6 5.7 5.5 5.2 5.1 5.1 5.4 5.4 5.6 5.4 5.2 5.1 4.7 4.9 4.8 5.0 5.3 5.4 5.5 5.7 5.9 6.0 6.1 6.2 6.3 6.2
5.1 4.7 4.5 4.4 4.2 4.2 4.3 4.4 4.2 4.2 4.3 4.1 4.0 3.9 3.9 4.6 5.1 5.6 5.5 5.2 5.3 5.2 5.7 5.9 5.7 5.7 5.5 5.3 5.1 4.8 4.6 4.9 5.1 5.2 5.5 5.6 5.6 5.8 5.9 6.0 6.1 6.2 6.2
4.9 4.7 4.5 4.3 4.4 4.4 4.4 4.3 4.2 4.3 4.2 4.0 3.9 3.8 4.0 4.9 5.4 5.7 5.5 5.4 5.4 5.5 5.6 5.8 5.7 5.7 5.6 5.3 5.2 4.9 4.8 5.1 5.3 5.3 5.4 5.5 5.5 5.6 5.7 5.8 5.9 6.1 6.3
4.8 4.5 4.5 4.4 4.4 4.4 4.4 4.3 4.3 4.1 4.0 4.0 3.8 3.8 4.6 5.2 5.8 5.7 5.4 5.3 5.7 5.9 5.8 5.9 5.8 5.8 5.7 5.3 5.3 5.1 5.1 5.3 5.4 5.4 5.3 5.5 5.6 5.4 5.6 5.6 5.8 5.9 6.2
4.6 4.5 4.5 4.5 4.4 4.4 4.4 4.3 4.2 4.0 4.1 3.9 3.8 4.3 5.1 5.7 5.7 5.3 5.4 5.7 5.8 6.1 6.0 6.0 5.8 5.7 5.8 5.6 5.5 5.5 5.7 5.8 5.7 5.6 5.5 5.3 5.4 5.4 5.3 5.3 5.4 5.8 6.0
4.6 4.5 4.5 4.4 4.4 4.5 4.5 4.2 4.1 4.0 3.9 3.8 4.2 5.1 5.5 5.7 5.4 5.5 5.5 6.0 6.3 6.5 6.4 6.4 6.2 6.2 6.2 6.1 6.0 5.9 6.1 6.2 6.1 6.0 5.7 5.5 5.1 5.1 5.2 5.1 5.2 5.6 5.7
4.5 4.5 4.3 4.3 4.4 4.4 4.3 4.1 4.0 4.0 4.0 4.3 5.1 5.6 5.7 5.5 5.5 5.7 6.3 6.4 6.6 7.1 7.0 7.0 6.7 6.4 6.4 6.4 6.4 6.3 6.4 6.4 6.6 6.5 6.1 5.8 5.4 5.3 5.0 5.0 5.0 5.2 5.5
4.4 4.4 4.3 4.2 4.2 4.3 4.2 4.0 4.0 4.1 4.3 5.0 5.5 5.7 5.6 5.6 5.7 5.9 6.4 6.8 7.2 7.3 7.3 7.2 7.1 6.8 6.6 6.5 6.4 6.5 6.6 6.6 6.7 6.8 6.6 6.3 6.0 5.7 5.3 5.1 5.1 5.1 5.3
4.3 4.3 4.2 4.2 4.2 4.1 3.9 4.0 4.2 4.2 4.8 5.5 5.5 5.8 5.7 5.8 5.8 6.4 6.6 6.7 7.2 7.4 7.3 7.5 7.4 7.0 6.5 6.5 6.5 6.5 6.5 6.5 6.7 6.8 6.7 6.6 6.4 6.2 5.9 5.6 5.4 5.2 5.3
4.1 4.1 4.2 4.3 4.2 4.1 4.0 4.1 4.1 4.8 5.4 5.5 5.7 5.8 5.8 5.9 6.1 6.8 6.8 6.7 6.6 6.5 6.8 6.7 6.8 6.7 6.7 6.5 6.5 6.3 6.2 6.2 6.3 6.4 6.5 6.5 6.4 6.2 6.2 5.8 5.7 5.5 5.3
4.2 4.3 4.5 4.4 4.3 4.1 4.1 4.1 4.6 5.1 5.6 5.7 5.8 5.7 5.8 5.8 6.2 7.0 7.4 6.9 6.5 6.1 6.0 6.0 5.9 6.0 6.0 6.1 6.1 6.1 6.2 6.1 6.3 6.4 6.5 6.7 6.4 6.1 6.2 6.0 5.8 5.5 5.3
Wind_Speed
6 7 7 7 7 5 6 4 3 3 2 3 2 2 3 4 4 10 12 16 14 15 13 10 10 10 6 7 8 8 8 7 6 7 8 8 11 10 3 6 6 7 10
7 7 7 7 7 6 6 5 4 3 3 1 1 1 2 3 5 7 13 14 14 14 14 11 8 9 7 8 7 7 6 5 4 5 8 4 4 4 4 3 6 10 7
12 10 9 8 7 7 7 6 4 4 2 1 2 3 3 4 2 3 4 7 15 15 14 14 12 8 6 7 7 7 5 7 6 5 3 4 4 10 4 8 5 10 7
8 8 9 7 8 7 6 5 5 3 1 1 1 1 2 2 3 4 4 8 13 13 14 13 13 11 8 8 7 7 7 5 8 5 4 5 7 4 7 4 7 5 8
13 12 10 9 6 7 6 5 5 1 0 2 2 2 3 3 3 4 6 6 7 12 13 13 12 8 7 7 8 9 8 6 6 6 5 5 6 8 7 9 9 6 4
10 8 7 6 5 6 5 4 3 0 2 3 3 4 6 6 5 7 6 6 6 5 9 12 12 12 8 8 8 9 9 8 7 6 6 5 5 7 6 6 9 12 6
9 8 8 7 7 7 5 3 2 2 3 3 5 5 6 6 6 7 6 9 7 6 7 9 8 7 11 10 9 9 9 8 7 8 6 6 6 6 7 8 9 7 8
7 8 8 7 7 7 5 4 2 2 4 5 6 5 6 4 5 6 6 7 7 7 11 9 11 12 13 11 9 7 8 8 7 7 7 6 6 6 7 7 8 9 6
7 7 7 7 7 6 5 4 2 3 4 5 5 6 5 6 6 7 7 6 7 8 10 12 10 10 11 10 9 8 8 10 8 7 8 7 6 6 6 7 8 7 6
6 6 7 7 5 6 4 4 3 3 5 6 5 5 6 6 6 7 8 9 9 9 10 11 11 11 11 11 10 9 10 9 8 8 9 7 5 6 6 6 7 6 7
7 7 7 6 6 5 4 3 4 5 5 5 5 6 7 7 7 7 9 9 10 10 11 11 11 12 11 11 10 11 12 10 8 9 11 10 8 7 6 5 6 6 6
7 7 7 6 6 5 4 4 5 5 5 6 6 8 7 8 8 9 10 10 11 10 11 11 12 12 12 11 11 12 12 10 11 10 11 12 8 8 7 5 7 6 7
8 7 6 5 5 4 3 4 4 5 6 7 7 9 9 9 10 10 11 11 11 11 11 12 12 12 12 12 12 11 12 12 11 11 11 11 10 8 7 6 6 6 6
8 6 6 5 3 2 2 4 6 6 6 7 8 9 10 10 10 11 12 11 11 12 12 12 12 12 12 13 13 12 12 12 12 11 11 11 10 10 8 7 6 6 5
7 6 5 3 1 2 4 5 5 6 6 7 9 10 10 11 11 12 12 12 12 12 12 13 13 12 12 10 12 12 11 12 12 12 12 11 14 19 16 8 7 6 5
7 7 5 4 2 4 4 5 7 7 7 8 9 10 11 12 12 13 13 14 14 13 13 13 13 13 11 21 23 19 11 12 12 11 10 10 17 15 19 20 19 14 7
8 7 5 3 2 3 3 5 6 7 7 8 10 11 11 12 13 14 14 15 14 14 14 14 13 14 13 24 24 23 11 10 9 10 10 8 8 13 10 13 18 16 18
8 6 5 3 1 2 4 5 6 6 7 8 9 11 12 14 15 15 15 15 13 14 13 14 14 14 12 25 25 24 12 10 10 10 11 10 10 9 10 9 9 9 8
6 5 4 2 1 3 4 5 6 6 8 9 10 12 13 14 15 16 16 15 14 14 14 14 14 14 14 25 25 20 10 10 10 9 10 10 11 15 19 10 10 7 8
6 6 5 2 3 4 5 5 6 7 8 10 12 12 13 14 15 15 15 12 14 15 12 15 15 19 15 23 24 18 8 9 7 8 10 19 14 19 20 11 10 11 10
7 6 5 4 2 3 4 5 6 7 9 11 11 12 13 14 14 14 14 14 14 14 14 15 14 14 15 15 23 21 10 7 7 7 7 6 16 17 19 19 10 11 10
6 5 4 3 3 4 4 5 6 8 9 10 12 13 13 11 12 15 13 14 13 13 13 13 12 10 11 18 19 21 19 17 9 8 6 8 18 18 19 15 16 17 16
5 4 4 3 4 5 3 5 6 8 10 11 12 12 14 13 13 13 13 11 11 10 11 11 11 11 10 9 20 21 20 18 10 6 11 18 19 20 17 21 20 18 7
5 3 4 5 5 5 5 5 6 8 10 11 13 12 12 14 11 10 10 10 9 10 11 11 11 11 11 10 8 8 9 15 12 14 10 13 16 18 14 12 11 7 6
4 4 4 2 4 5 6 6 8 7 9 11 12 11 11 11 12 10 10 11 11 13 12 11 11 11 11 11 20 18 10 8 11 13 8 7 8 6 7 7 8 6 5
3 3 3 3 4 5 6 7 8 8 9 11 10 10 10 10 9 10 11 19 21 26 27 27 19 12 21 26 25 23 22 21 19 9 7 7 7 6 7 7 7 6 8
Wind_Direction
195 183 185 180 181 186 172 169 120 72 61 24 357 346 339 333 334 331 330 325 326 320 314 298 303 297 302 297 299 305 304 310 308 304 316 289 271 263 271 287 272 270 275
191 193 191 194 195 188 187 176 136 103 77 54 295 267 280 282 274 296 312 315 323 317 318 314 308 306 308 309 305 310 308 306 337 314 295 317 307 343 329 317 333 354 319
192 194 197 204 203 200 194 185 144 98 84 4 337 306 286 288 294 301 294 313 316 310 309 311 309 306 305 306 304 303 312 315 314 316 300 315 308 343 304 317 329 344 344
190 194 200 206 202 206 193 159 129 101 150 359 289 315 271 272 250 290 290 299 295 298 301 303 306 304 304 300 301 309 306 303 307 311 276 305 300 305 312 301 317 331 341
192 197 203 206 189 171 177 153 114 112 13 357 350 315 289 267 288 298 297 301 292 297 298 301 304 302 302 296 295 300 299 291 286 291 294 297 285 270 259 290 304 322 344
191 197 200 166 155 149 150 127 118 191 27 346 339 330 320 313 316 316 314 313 308 302 292 299 301 296 293 297 300 296 288 284 283 282 280 277 284 298 302 306 309 301 315
182 191 180 168 154 156 147 124 112 2 348 344 339 331 313 306 308 311 311 315 313 310 302 299 296 300 301 298 295 292 287 282 278 279 279 279 278 285 287 292 298 291 313
182 189 176 162 150 153 129 114 72 348 343 341 324 316 315 310 300 288 300 302 305 304 303 297 302 298 300 299 294 287 284 279 273 272 278 279 276 274 275 277 293 298 294
179 169 145 141 140 128 121 112 51 351 341 325 315 306 305 293 299 299 293 294 291 296 304 301 298 298 300 298 289 291 283 289 278 272 274 272 274 273 272 279 278 277 287
150 132 131 131 121 116 109 82 41 348 323 314 296 311 289 296 301 302 295 295 294 295 298 298 299 302 302 302 297 291 285 281 284 290 275 268 279 283 281 281 287 281 280
143 137 126 119 117 103 82 57 11 339 312 302 306 309 313 307 299 293 293 295 296 297 296 297 300 302 302 301 297 293 289 274 280 287 285 278 278 274 278 276 279 284 277
139 131 127 123 104 85 50 17 343 314 307 315 318 316 306 299 297 297 293 293 295 295 295 297 297 298 297 296 295 293 292 284 280 282 283 283 273 270 277 274 276 273 282
126 125 122 108 94 63 22 339 313 324 329 324 314 311 306 301 295 295 295 295 293 294 295 295 293 294 293 293 291 287 286 282 273 271 271 273 274 270 271 264 267 271 277
140 129 114 104 90 42 332 330 338 337 314 313 311 307 303 301 297 297 297 296 297 298 296 294 293 291 291 289 289 285 278 274 271 266 262 265 265 264 260 261 258 263 260
140 135 137 143 113 343 357 350 327 306 306 306 312 306 304 301 300 301 302 302 302 298 296 296 294 292 289 287 287 280 275 266 267 260 255 256 257 261 258 253 242 241 246
140 144 146 130 55 15 352 333 313 310 315 310 303 307 307 307 308 306 308 306 303 303 300 298 294 294 290 293 296 295 283 275 272 275 271 250 260 268 273 272 267 248 242
151 152 141 110 49 359 329 305 306 310 310 308 308 309 309 312 312 311 309 307 307 306 300 298 294 292 291 295 296 294 287 281 279 272 269 275 260 254 251 264 273 269 258
144 136 126 103 30 342 320 315 318 308 310 312 311 312 317 315 313 312 310 310 307 303 301 299 296 291 292 298 302 298 290 281 272 266 264 263 265 259 259 257 257 259 254
127 128 128 131 82 350 333 326 315 314 320 318 315 317 318 313 313 312 312 307 303 303 301 297 298 296 296 298 299 303 292 278 271 266 260 261 252 249 257 250 256 242 247
125 129 126 107 48 351 344 325 319 322 318 317 314 313 311 310 310 308 305 304 302 299 303 301 299 297 298 297 300 298 283 276 268 259 252 257 251 248 251 242 237 245 243
126 115 101 90 39 343 345 333 320 316 312 308 309 311 311 311 305 303 303 302 301 304 301 299 299 294 288 288 294 296 289 279 274 266 264 257 258 266 263 252 223 225 233
113 100 89 56 20 9 357 320 307 309 303 311 313 313 314 312 307 304 304 307 307 307 306 304 302 298 293 290 292 295 292 288 283 274 257 249 254 260 262 264 255 242 224
118 102 84 42 14 1 330 311 303 305 317 317 314 315 314 310 307 313 312 313 314 312 310 310 306 305 304 298 297 298 297 294 286 275 268 270 266 261 255 257 253 251 239
112 101 63 34 352 336 324 282 298 320 321 314 317 318 315 315 319 317 313 312 313 314 310 310 312 308 304 301 297 282 276 274 275 266 267 260 262 253 246 246 252 245 206
103 93 71 29 340 325 312 309 328 324 318 317 317 318 311 317 320 315 313 315 310 311 317 312 308 309 305 301 300 297 290 276 264 269 256 250 249 238 226 228 234 211 207
114 92 66 21 339 321 318 325 328 321 318 320 323 315 323 323 319 321 316 314 321 323 322 320 320 315 309 313 314 310 305 299 290 273 251 241 241 230 216 215 212 212 194